Terminal Aerodrome Forecast
Issued by NWS

Home | Current Version | Previous Version | Text Only | Print | Product List | Glossary On
Versions: 1 2 3 4 5 6 7 8 9 10 11 12 13 14 15 16 17 18 19 20 21 22 23 24 25 26 27 28 29 30 31 32 33 34 35 36 37 38 39 40 41
000
FTUS43 KMKX 292111 AAA
TAFUES
TAF AMD
KUES 292111Z 2921/3018 18009KT P6SM VCTS BKN040CB
     FM292200 20009KT P6SM VCTS BKN050CB
     FM300400 22005KT P6SM SHRA VCTS OVC045CB
     FM301200 03008KT 5SM SHRA BR OVC008
     FM301400 03012G19KT 5SM SHRA BR OVC008
     FM301700 03015G24KT 6SM -SHRA OVC010=

USA.gov is the U.S. government's official web portal to all federal, state and local government web resources and services.